STARLINK-11371, 62879

Orbit data source: Space-Track

STARLINK-11371, 62879 is a payload satellite owned by SpaceX/Seattle (US) in LEO that was launched on Tue, 04 Feb 2025 UTC via an FALCON 9 launch vehicle from the Air Force Eastern Test Range (AFETR). Payload-class satellites include a variety of spacecraft equipped with specific instruments for various scientific and technological missions. These include communications satellites like Starlink; space stations such as the ISS; scientific satellites like the Hubble; Earth observation satellites from companies like Planet Labs, Umbra, and HawkEye 360; GPS; miniature CubeSats for education and research; and military/defense satellites.

Loading next visibility...
Identifier
62879, 2025-024A
Orbit
LEO
Country
Flag of USUS
Related business
Manufacturer
SpaceX/Seattle
Mission
Operational Commercial Communications
Bus & Motor
STARLINK V2MD, Unknown motor
Mass
960 kg wet, ~910 kg dry
Launch date (UTC)
Icon of a cake. It is the launch day of the satellite!2025-02-04 (1 year ago)
Launch vehicle
FALCON 9
Launch site
Air Force Eastern Test Range (AFETR)
Object type
Payload
Rocket body
Debris
Shape & HBR
Box + 2 Pan, 18.1 m
Radar Cross Section
36.964 m², Large (>1 m²)

Expand to show TLE details & history
Last TLE update: 8 hours ago

TLE from 8 hours ago
0 STARLINK-11371
1 62879U 25024A   26035.43781489  .00207265  00000-0  15759-2 0  9996
2 62879  42.9992  22.1822 0000133 250.2937 109.7916 15.70882946 58232
Epoch: 2026-02-04T10:30Z
TLE epoch observation values (Epoch: 2026-02-04T10:30:27.206Z)
Latitude
-0.00004°
Longitude
89.9644°
Altitude
356.174 km
Speed
7.697 km/s
True Right ascension
01h 28m 43s
True Declination
0° 00' 00"
Sunlit
Object was in daylight at epoch
Visualization orbit readout
Latitude
Unknown
Longitude
Unknown
Altitude
Unknown
Speed
Unknown
Apparent Right ascension
Unknown
Apparent Declination
Unknown
Sunlit
N/A
Visualization observer readout
Local Sidereal Time
20:15:31
Azimuth
Unknown
Elevation
Unknown
Doppler factor
Unknown
Orbital elements
Apogee altitude
358.444 km
Perigee altitude
358.264 km
Semi-major axis
6,736.491 km
Eccentricity
0.00001
Inclination
42.9992°
RAAN
22.1822°
Arg. of periapsis
250.2937°
True anomaly
109.79303°
Mean anomaly
109.7916°
Eccentric anomaly
109.79232°
Mean motion
3.92548 °/min
Orbital period
91.71 mins
BSTAR
0.0015759
Loading maneuver chart data...
Computing Atmospheric mass density...
Loading historical data...
Loading historical data...
Loading historical data...
Loading historical data...
Loading historical data...
Loading historical data...
Loading historical data...

Documentation

Showing up to 5 results
|